TimeEST,TemperatureF,Dew PointF,Humidity,Sea Level PressureIn,VisibilityMPH,Wind Direction,Wind SpeedMPH,Gust SpeedMPH,PrecipitationIn,Events,Conditions,WindDirDegrees,DateUTC
12:56 AM,57.9,55.9,93,29.98,10.0,West,6.9,-,N/A,,Partly Cloudy,260,2014-02-24 05:56:00
1:07 AM,57.9,55.9,93,29.97,10.0,West,8.1,-,N/A,,Scattered Clouds,260,2014-02-24 06:07:00
1:16 AM,59.0,57.0,93,29.97,10.0,West,8.1,-,N/A,,Mostly Cloudy,260,2014-02-24 06:16:00
1:56 AM,60.1,57.0,90,29.97,10.0,West,9.2,-,N/A,,Overcast,260,2014-02-24 06:56:00
2:56 AM,60.1,57.0,90,29.96,10.0,West,9.2,-,N/A,,Overcast,270,2014-02-24 07:56:00
3:56 AM,60.1,57.0,90,29.95,10.0,West,6.9,-,N/A,,Overcast,270,2014-02-24 08:56:00
4:56 AM,61.0,57.9,90,29.97,10.0,NW,6.9,-,N/A,,Overcast,310,2014-02-24 09:56:00
5:09 AM,62.1,57.9,86,29.97,10.0,WNW,5.8,-,N/A,,Overcast,290,2014-02-24 10:09:00
5:25 AM,62.1,57.9,86,29.98,10.0,West,5.8,-,N/A,,Overcast,270,2014-02-24 10:25:00
5:56 AM,61.0,57.0,87,29.99,10.0,WNW,4.6,-,N/A,,Mostly Cloudy,290,2014-02-24 10:56:00
6:29 AM,61.0,57.0,87,30.00,10.0,WNW,6.9,-,N/A,,Scattered Clouds,300,2014-02-24 11:29:00
6:56 AM,60.1,57.0,90,30.00,10.0,WNW,8.1,-,N/A,,Mostly Cloudy,300,2014-02-24 11:56:00
7:20 AM,60.1,55.9,86,30.01,10.0,WNW,8.1,-,N/A,,Partly Cloudy,300,2014-02-24 12:20:00
7:56 AM,61.0,57.0,87,30.03,10.0,NW,9.2,-,N/A,,Partly Cloudy,310,2014-02-24 12:56:00
8:56 AM,63.0,55.0,75,30.05,10.0,NNW,13.8,20.7,N/A,,Scattered Clouds,340,2014-02-24 13:56:00
9:56 AM,64.9,52.0,63,30.06,8.0,North,16.1,21.9,N/A,,Partly Cloudy,10,2014-02-24 14:56:00
10:56 AM,68.0,48.9,50,30.07,7.0,North,10.4,-,N/A,,Partly Cloudy,10,2014-02-24 15:56:00
11:56 AM,70.0,-9999,N/A,30.06,7.0,NNE,9.2,-,N/A,,Scattered Clouds,30,2014-02-24 16:56:00
12:03 PM,69.1,-9999,N/A,30.06,7.0,ENE,8.1,-,N/A,,Partly Cloudy,60,2014-02-24 17:03:00
12:56 PM,71.1,-9999,N/A,30.05,10.0,NNE,6.9,-,N/A,,Clear,20,2014-02-24 17:56:00
1:56 PM,71.1,42.1,35,30.02,10.0,SE,5.8,-,N/A,,Scattered Clouds,140,2014-02-24 18:56:00
2:56 PM,72.0,43.0,35,30.01,10.0,South,4.6,-,N/A,,Scattered Clouds,170,2014-02-24 19:56:00
3:56 PM,66.9,48.9,52,30.01,10.0,SSE,10.4,-,N/A,,Partly Cloudy,160,2014-02-24 20:56:00
4:56 PM,66.0,48.9,54,30.02,10.0,South,6.9,-,N/A,,Partly Cloudy,170,2014-02-24 21:56:00
5:56 PM,62.1,46.9,58,30.06,10.0,South,4.6,-,N/A,,Scattered Clouds,190,2014-02-24 22:56:00
6:56 PM,59.0,46.9,64,30.09,10.0,South,3.5,-,N/A,,Clear,190,2014-02-24 23:56:00
7:56 PM,55.9,48.0,75,30.10,10.0,Calm,Calm,-,N/A,,Clear,0,2014-02-25 00:56:00
8:56 PM,53.1,46.9,80,30.12,10.0,Calm,Calm,-,N/A,,Clear,0,2014-02-25 01:56:00
9:56 PM,53.1,46.9,80,30.12,10.0,Calm,Calm,-,N/A,,Clear,0,2014-02-25 02:56:00
10:56 PM,52.0,48.9,89,30.11,10.0,Calm,Calm,-,N/A,,Clear,0,2014-02-25 03:56:00
11:56 PM,54.0,48.9,83,30.09,10.0,Calm,Calm,-,N/A,,Clear,0,2014-02-25 04:56:00